Regional Weather Roundup
Issued by NWS Raleigh/Durham, NC

Home | Current Version | Previous Version | Text Only | Print | Product List | Glossary On
Versions: 1 2 3 4 5 6 7 8 9 10 11 12 13 14 15 16 17 18 19 20 21 22 23 24 25 26 27
000
ASUS42 KRAH 290410
RWRRAH
NORTH CAROLINA WEATHER ROUNDUP
NATIONAL WEATHER SERVICE RALEIGH NC
1200 AM EDT THU JUN 29 2017

NOTE: "FAIR" INDICATES FEW OR NO CLOUDS BELOW 12,000 FEET WITH NO
SIGNIFICANT WEATHER AND/OR OBSTRUCTIONS TO VISIBILITY.

NCZ001-053-055-056-065-067-290500-
WESTERN NORTH CAROLINA

CITY           SKY/WX    TMP DP  RH WIND       PRES   REMARKS
ASHEVILLE      CLEAR     62  57  83 S3        30.24F
JEFFERSON      CLEAR     58  54  87 CALM      30.27S
MORGANTON      PTCLDY    65  61  86 NW3       30.24S
HICKORY        CLEAR     67  59  75 CALM      30.19F
RUTHERFORDTON  MOCLDY    66  65  95 CALM      30.21S
MOUNT AIRY     CLEAR     69  59  70 CALM      30.22S
BOONE          NOT AVBL
$$

NCZ021-022-025-041-071-084-088-290500-
CENTRAL NORTH CAROLINA

CITY           SKY/WX    TMP DP  RH WIND       PRES   REMARKS
CHARLOTTE      PTCLDY    74  57  55 SE8       30.20S
GREENSBORO     PTCLDY    69  58  67 S8        30.19F
WINSTON-SALEM  CLEAR     66  58  75 CALM      30.20F
RALEIGH-DURHAM PTCLDY    64  57  78 CALM      30.21R
FORT BRAGG     CLEAR     71  56  58 S3        30.19R
FAYETTEVILLE   CLEAR     72  58  61 SE6       30.20R
BURLINGTON     PTCLDY    64  61  90 CALM      30.20S
LAURINBURG     PTCLDY    71  62  73 S6        30.21R
$$

NCZ011-015-027-028-043-044-047-080-103-290500-
NORTHEASTERN NORTH CAROLINA

CITY           SKY/WX    TMP DP  RH WIND       PRES   REMARKS
ROCKY MT-WILSO CLEAR     64  61  90 SE3       30.21R
GREENVILLE     CLEAR     70  61  73 CALM      30.22R
WASHINGTON     CLEAR    N/A N/A N/A CALM      30.21S
ELIZABETH CITY CLEAR     67  63  87 CALM      30.22R
MANTEO         CLEAR     68  63  83 CALM      30.22R
CAPE HATTERAS  NOT AVBL
$$

NCZ078-087-090-091-093-098-101-290500-
SOUTHEASTERN NORTH CAROLINA

CITY           SKY/WX    TMP DP  RH WIND       PRES   REMARKS
LUMBERTON      PTCLDY    69  61  75 CALM      30.20R
GOLDSBORO      CLEAR     70  62  76 CALM      30.19S
KINSTON        CLEAR     67  60  78 CALM      30.22S
KENANSVILLE    PTCLDY    63  59  88 CALM      30.21S
NEW BERN       CLEAR     66  61  84 CALM      30.22R
CHERRY POINT   CLEAR     67  56  67 SE6       30.21
BEAUFORT       CLEAR     67  61  81 CALM      30.20S
JACKSONVILLE   PTCLDY    65  64  97 CALM      30.20S
WILMINGTON     PTCLDY    68  61  78 CALM      30.20S
$$





USA.gov is the U.S. government's official web portal to all federal, state and local government web resources and services.